Regional Weather Roundup
Issued by NWS

Home | Current Version | Previous Version | Graphics & Text | Print | Product List | Glossary On
Versions: 1 2 3 4 5 6 7 8 9 10 11 12 13 14 15 16 17 18 19 20 21 22 23 24 25 26 27 28 29 30 31 32 33 34 35 36 37 38 39 40 41 42 43 44 45 46 47 48 49 50
474
ASUS43 KLOT 271203
RWRIL

ILLINOIS REGIONAL WEATHER ROUNDUP
NATIONAL WEATHER SERVICE CHICAGO/ROMEOVILLE IL
700 AM CDT FRI MAY 27 2016

NOTE: "FAIR" INDICATES FEW OR NO CLOUDS BELOW 12,000 FEET WITH NO
SIGNIFICANT WEATHER AND/OR OBSTRUCTIONS TO VISIBILITY.

* THESE STATIONS ARE NOT UNDER NWS QUALITY CONTROL. THEY ALSO MAY NOT
  REPORT WEATHER SUCH AS PRECIPITATION OR FOG.

ILZ001-002-007-009-015-016-024-271300-
NORTHWEST ILLINOIS

CITY           SKY/WX    TMP DP  RH WIND       PRES   REMARKS
MOLINE         CLOUDY    66  61  84 S12       29.82S
6HR MIN TEMP:  64; 6HR MAX TEMP:  73; 6HR PCP:  0.32;

STERLING*      CLOUDY    67  61  81 SE6       29.87R
$$

ILZ003-004-008-010-011-017-018-271300-
NORTH CENTRAL ILLINOIS

CITY           SKY/WX    TMP DP  RH WIND       PRES   REMARKS
ROCKFORD       CLOUDY    69  63  81 SE3       29.87R
6HR MIN TEMP:  68; 6HR MAX TEMP:  72; 6HR PCP: TRACE;

FREEPORT*      CLOUDY    64  61  90 E6        29.86R
$$

ILZ005-006-012>014-019>023-271300-
NORTHEAST ILLINOIS

CITY           SKY/WX    TMP DP  RH WIND       PRES   REMARKS
CHICAGO-OHARE  CLOUDY    68  64  87 S7        29.88R
6HR MIN TEMP:  66; 6HR MAX TEMP:  74;

CHICAGO-MIDWAY PTSUNNY   70  63  78 S8        29.89R
6HR MIN TEMP:  69; 6HR MAX TEMP:  74;

AURORA         CLOUDY    69  65  86 S13       29.89S
6HR MIN TEMP:  67; 6HR MAX TEMP:  73;

LANSING*       MOSUNNY   66  62  87 S8        29.91R
WAUKEGAN       CLOUDY    70  66  87 S8        29.87R
6HR MIN TEMP:  64; 6HR MAX TEMP:  71;

DUPAGE AIRPORT CLOUDY    68  64  87 S8        29.88R
6HR MIN TEMP:  67; 6HR MAX TEMP:  72;

WHEELING       MOSUNNY   69  65  86 S8        29.89R
6HR MIN TEMP:  67; 6HR MAX TEMP:  74;

NORTHERLY ISL    N/A     69  62  78 S12         N/A
NORTHERLY ISL    N/A     69  62  78 S12         N/A
$$

LMZ740>746-271300-
SOUTHERN LAKE MICHIGAN

STATION/POSITION SKY/WX   TEMP    WIND        PRES    VSBY  WAVE
                          AIR SEA DIR/SP/G                  HT/PER
                          (F)     (DEG/KT/KT) (MB)    (MI)  (FT/S)
SOUTHERN BUOY              54 50  150/ 10/ 12 1012.0          1/ 3
WILMETTE HARBOR            61 58  170/  6/  6   N/A           1
HARRISON CRIB              66     170/  9/  9   N/A
BURNHAM HARBOR             69     200/  8/ 11   N/A
CALUMET HARBOR             67     150/  6/  9 1011.4F
BURNS HARBOR               68     180/ 11/ 16 1012.9F
MICHIGAN CITY              67     160/ 10/ 13   N/A
MICHIGAN CITY 6N           63 58  180/  6/  8   N/A           1
ST. JOSEPH                 63 61  150/  6/  6   N/A           1
$$

ILZ025>027-034>036-040-047-049-050-058-095>099-271300-
WEST-CENTRAL ILLINOIS

CITY           SKY/WX    TMP DP  RH WIND       PRES   REMARKS
QUINCY         CLOUDY    67  64  90 S15G25    29.84R
MACOMB*        CLOUDY    65  64  94 SE8       29.87S
$$

ILZ028>032-037-038-041>044-048-051>054-059>061-271300-
CENTRAL ILLINOIS

CITY           SKY/WX    TMP DP  RH WIND       PRES   REMARKS
BLOOMINGTON    CLOUDY    67  67 100 S12       29.93R
DECATUR        PTSUNNY   68  64  87 S7        29.94R
PEORIA         CLOUDY    69  64  84 S8        29.89R
6HR MIN TEMP:  66; 6HR MAX TEMP:  72; 6HR PCP: TRACE;

SPRINGFIELD    CLOUDY    69  65  86 SE8       29.90F
6HR MIN TEMP:  68; 6HR MAX TEMP:  71; 6HR PCP: TRACE;

TAYLORVILLE    NOT AVBL
$$

ILZ033-039-045-046-055>057-062-063-271300-
EAST-CENTRAL ILLINOIS

CITY           SKY/WX    TMP DP  RH WIND       PRES   REMARKS
CHAMPAIGN      CLOUDY    66  63  90 S10       29.95R
MATTOON        MOSUNNY   66  62  87 SE9       29.95R
$$

ILZ079-100>102-271300-
SOUTHWEST ILLINOIS

CITY           SKY/WX    TMP DP  RH WIND       PRES   REMARKS
ALTON          CLOUDY    66  64  94 SE8       29.91R
BELLEVILLE     CLOUDY    67  67 100 E6        29.90S
CAHOKIA*       LGT RAIN  68  65  90 S6        29.90R
SPARTA*        LGT RAIN  65  64  97 SE8       29.93S
$$

ILZ064>066-069>071-074>076-080>082-084>086-088>090-092>094-271300-
SOUTH-CENTRAL ILLINOIS

CITY           SKY/WX    TMP DP  RH WIND       PRES   REMARKS
CARBONDALE     LGT RAIN  66  64  93 SE3       29.93F
6HR MIN TEMP:  65; 6HR MAX TEMP:  69; 6HR PCP:  0.18;

MARION         CLOUDY    66  66 100 MISG      29.96R
MT. VERNON     CLOUDY    64  61  88 E3        29.96S
SALEM*         CLOUDY    67  64  91 SE5       29.94F
$$

ILZ067-068-072-073-078-083-087-091-271300-
SOUTHEAST ILLINOIS

CITY           SKY/WX    TMP DP  RH WIND       PRES   REMARKS
LAWRENCEVILLE  CLOUDY    67  65  93 SE5       29.97S
FLORA*         CLOUDY    66  65  95 CALM      29.96S
HARRISBURG*    CLOUDY    66  65  96 NW5       29.97R
ROBINSON*      CLOUDY    65  64  96 CALM      29.97F
$$

ABBREVIATIONS USED IN REMARKS
   TC - TEMPERATURE IN CELSIUS
  WCI - WIND CHILL INDEX
   HX - HEAT INDEX
  VSB - VISIBILITY
$$





USA.gov is the U.S. government's official web portal to all federal, state and local government web resources and services.